Location: Brno
(49.2000°N, 16.6330°E)
Time: 06:11:27
(UTC+02:00)

ISS - Visible Passes

Search period start: 16 April 2014 00:00
Search period end: 26 April 2014 00:00
Orbit: 415 x 420 km, 51.6° (Epoch: 15 April)

Date Brightness Start Highest point End Pass type
(mag) Time Alt. Az. Time Alt. Az. Time Alt. Az.
16 Apr -3.1 21:16:32 10° WNW 21:19:55 71° NNE 21:21:35 27° E visible
16 Apr -0.8 22:53:27 10° W 22:54:30 17° W 22:54:30 17° W visible
17 Apr -2.9 20:28:16 10° WNW 20:31:36 60° N 20:34:57 10° E visible
17 Apr -2.7 22:05:05 10° WNW 22:08:05 48° SW 22:08:05 48° SW visible
18 Apr -3.2 21:16:45 10° WNW 21:20:07 71° SSW 21:21:39 29° SE visible
18 Apr -0.4 22:54:15 10° W 22:54:33 11° WSW 22:54:33 11° WSW visible
19 Apr -3.2 20:28:24 10° WNW 20:31:47 87° NNE 20:35:09 10° ESE visible
19 Apr -1.6 22:05:29 10° W 22:08:06 24° SW 22:08:06 24° SW visible
20 Apr -2.2 21:16:53 10° W 21:20:00 35° SSW 21:21:39 21° SSE visible
21 Apr -2.7 20:28:23 10° WNW 20:31:40 52° SSW 20:34:56 10° SE visible
21 Apr -0.6 22:06:52 10° WSW 22:07:47 11° SW 22:08:06 11° SW visible
22 Apr -1.0 21:17:18 10° W 21:19:33 17° SW 21:21:39 11° S visible
23 Apr -1.5 20:28:24 10° W 20:31:13 25° SW 20:34:02 10° SSE visible
